Wayne, NE

10:12 AM CDT on May 27, 2017 (GMT -0500)
Wayne Municipal

Weather History for KLCG - December, 2011

Change the Weather History Date:

Tuesday, December 27, 2011

  Actual Average (KOFK) Record (KOFK)
Temperature  
Mean Temperature 34 °F -  
Max Temperature 39 °F 32 °F 62 °F (2013)
Min Temperature 30 °F 14 °F -14 °F (1894)
Degree Days  
Heating Degree Days 30    
Moisture  
Dew Point 24 °F    
Average Humidity 66    
Maximum Humidity 75    
Minimum Humidity 56    
Precipitation  
Precipitation 0.00 in - - ()
Sea Level Pressure  
Sea Level Pressure 30.01 in    
Wind  
Wind Speed 13 mph (NW)    
Max Wind Speed 22 mph    
Max Gust Speed 28 mph    
Visibility 10 miles    
Events      
Averages and records for this station are not official NWS values.
T = Trace of Precipitation, MM = Missing Value Source: NWS Daily Summary

Daily Weather History Graph

Daily Weather History Graph

Search for Another Location

Airport or City:

Trip Planner

Search our weather history database for the weather conditions in past years. The results will help you decide how hot, cold, wet, or windy it might be!

Date:

Astronomy

Dec. 27, 2011 Rise Set
Actual Time 7:55 AM CST 5:02 PM CST
Civil Twilight 7:23 AM CST 5:34 PM CST
Nautical Twilight 6:48 AM CST 6:09 PM CST
Astronomical Twilight 6:14 AM CST 6:43 PM CST
Moon 9:48 AM CST 8:40 PM CST
Length of Visible Light 10h 10m
Length of Day
9h 06m
Waxing Crescent, 11% of the Moon is Illuminated
Dec 27
Waxing Crescent
Jan 1
First Quarter
Jan 9
Full
Jan 16
Last Quarter
Jan 23
New

Hourly Weather History & Observations

Time (CST) Temp. Windchill Dew Point Humidity Pressure Visibility Wind Dir Wind Speed Gust Speed Precip Events Conditions
12:15 AM 37.4 °F 28.9 °F 26.6 °F 65% 29.94 in 10.0 mi NW 13.8 mph 20.7 mph N/A   Clear
12:35 AM 37.4 °F 26.6 °F 24.8 °F 60% 29.94 in 10.0 mi NW 21.9 mph 27.6 mph N/A   Clear
12:55 AM 37.4 °F 27.8 °F 24.8 °F 60% 29.95 in 10.0 mi NW 17.3 mph - N/A   Clear
1:15 AM 35.6 °F 26.2 °F 24.8 °F 65% 29.95 in 10.0 mi NW 15.0 mph - N/A   Clear
1:35 AM 35.6 °F 27.1 °F 23.0 °F 60% 29.95 in 10.0 mi NW 12.7 mph - N/A   Clear
1:55 AM 35.6 °F 27.1 °F 23.0 °F 60% 29.95 in 10.0 mi NW 12.7 mph - N/A   Clear
2:15 AM 35.6 °F 26.2 °F 23.0 °F 60% 29.95 in 10.0 mi NW 15.0 mph - N/A   Clear
2:35 AM 33.8 °F 25.3 °F 23.0 °F 65% 29.96 in 10.0 mi NW 11.5 mph - N/A   Clear
2:55 AM 33.8 °F 24.8 °F 23.0 °F 65% 29.96 in 10.0 mi NW 12.7 mph 19.6 mph N/A   Clear
3:15 AM 35.6 °F 25.9 °F 23.0 °F 60% 29.96 in 10.0 mi NW 16.1 mph 23.0 mph N/A   Clear
3:35 AM 33.8 °F 23.9 °F 21.2 °F 60% 29.96 in 10.0 mi NW 15.0 mph - N/A   Clear
3:55 AM 33.8 °F 23.5 °F 21.2 °F 60% 29.96 in 10.0 mi NW 16.1 mph 24.2 mph N/A   Clear
4:15 AM 33.8 °F 23.2 °F 21.2 °F 60% 29.97 in 10.0 mi NW 17.3 mph 24.2 mph N/A   Clear
4:35 AM 33.8 °F 23.2 °F 21.2 °F 60% 29.97 in 10.0 mi NW 17.3 mph 23.0 mph N/A   Clear
4:55 AM 32.0 °F 21.2 °F 21.2 °F 64% 29.97 in 10.0 mi NW 16.1 mph - N/A   Clear
5:15 AM 32.0 °F 20.8 °F 21.2 °F 64% 29.98 in 10.0 mi NW 17.3 mph - N/A   Clear
5:35 AM 32.0 °F 20.1 °F 23.0 °F 69% 29.98 in 10.0 mi NW 19.6 mph - N/A   Clear
5:55 AM 32.0 °F 21.2 °F 23.0 °F 69% 29.98 in 10.0 mi NW 16.1 mph 24.2 mph N/A   Clear
6:15 AM 32.0 °F 21.2 °F 23.0 °F 69% 29.99 in 10.0 mi NW 16.1 mph - N/A   Clear
6:35 AM 32.0 °F 22.1 °F 23.0 °F 69% 30.00 in 10.0 mi NW 13.8 mph - N/A   Clear
6:55 AM 32.0 °F 22.1 °F 23.0 °F 69% 30.00 in 10.0 mi NW 13.8 mph - N/A   Clear
7:15 AM 32.0 °F 22.1 °F 23.0 °F 69% 30.01 in 10.0 mi NW 13.8 mph - N/A   Clear
7:35 AM 32.0 °F 22.5 °F 23.0 °F 69% 30.01 in 10.0 mi NW 12.7 mph 19.6 mph N/A   Clear
7:55 AM 32.0 °F 23.0 °F 23.0 °F 69% 30.02 in 10.0 mi NW 11.5 mph 17.3 mph N/A   Clear
8:15 AM 30.2 °F 20.8 °F 23.0 °F 75% 30.03 in 10.0 mi NW 11.5 mph - N/A   Clear
8:35 AM 32.0 °F 23.0 °F 23.0 °F 69% 30.04 in 10.0 mi NW 11.5 mph - N/A   Clear
8:55 AM 32.0 °F 22.5 °F 24.8 °F 75% 30.05 in 10.0 mi NW 12.7 mph 17.3 mph N/A   Clear
9:15 AM 32.0 °F 22.1 °F 24.8 °F 75% 30.05 in 10.0 mi NW 13.8 mph - N/A   Clear
9:35 AM 33.8 °F 23.2 °F 26.6 °F 75% 30.05 in 10.0 mi NW 17.3 mph 20.7 mph N/A   Clear
9:55 AM 33.8 °F 22.8 °F 26.6 °F 75% 30.04 in 10.0 mi NNW 18.4 mph 25.3 mph N/A   Clear
10:15 AM 33.8 °F 22.8 °F 26.6 °F 75% 30.04 in 10.0 mi NNW 18.4 mph 26.5 mph N/A   Clear
10:35 AM 35.6 °F 25.9 °F 26.6 °F 70% 30.05 in 10.0 mi NW 16.1 mph 23.0 mph N/A   Clear
11:15 AM 35.6 °F 26.2 °F 26.6 °F 70% 30.06 in 10.0 mi NNW 15.0 mph 20.7 mph N/A   Clear
11:35 AM 37.4 °F 28.2 °F 26.6 °F 65% 30.06 in 10.0 mi NNW 16.1 mph 20.7 mph N/A   Clear
11:55 AM 37.4 °F 28.2 °F 26.6 °F 65% 30.04 in 10.0 mi North 16.1 mph - N/A   Clear
12:15 PM 37.4 °F 28.5 °F 26.6 °F 65% 30.03 in 10.0 mi North 15.0 mph 23.0 mph N/A   Clear
12:35 PM 37.4 °F 28.2 °F 24.8 °F 60% 30.02 in 10.0 mi NNW 16.1 mph 23.0 mph N/A   Clear
12:55 PM 37.4 °F 28.9 °F 24.8 °F 60% 30.03 in 10.0 mi NNW 13.8 mph 17.3 mph N/A   Clear
1:15 PM 37.4 °F 29.3 °F 24.8 °F 60% 30.03 in 10.0 mi NW 12.7 mph 18.4 mph N/A   Clear
1:35 PM 37.4 °F 27.8 °F 24.8 °F 60% 30.03 in 10.0 mi NNW 17.3 mph - N/A   Clear
1:55 PM 39.2 °F 31.6 °F 24.8 °F 56% 30.02 in 10.0 mi NW 12.7 mph - N/A   Clear
2:15 PM 39.2 °F 33.0 °F 26.6 °F 61% 30.01 in 10.0 mi North 9.2 mph - N/A   Clear
2:35 PM 37.4 °F 30.3 °F 24.8 °F 60% 30.02 in 10.0 mi NNW 10.4 mph - N/A   Clear
2:55 PM 37.4 °F 30.3 °F 24.8 °F 60% 30.03 in 10.0 mi NNW 10.4 mph - N/A   Clear
3:15 PM 39.2 °F 33.6 °F 24.8 °F 56% 30.03 in 10.0 mi NNW 8.1 mph - N/A   Clear
3:35 PM 37.4 °F 31.4 °F 24.8 °F 60% 30.03 in 10.0 mi NNW 8.1 mph - N/A   Clear
3:55 PM 37.4 °F 32.1 °F 24.8 °F 60% 30.03 in 10.0 mi NW 6.9 mph - N/A   Clear
4:15 PM 35.6 °F 31.7 °F 24.8 °F 65% 30.04 in 10.0 mi NW 4.6 mph - N/A   Clear
4:35 PM 33.8 °F - 23.0 °F 65% 30.05 in 10.0 mi Calm Calm - N/A   Clear
4:55 PM 32.0 °F - 23.0 °F 69% 30.05 in 10.0 mi Calm Calm - N/A   Clear
5:15 PM 32.0 °F - 23.0 °F 69% 30.05 in 10.0 mi Calm Calm - N/A   Clear
5:55 PM 32.0 °F - 23.0 °F 69% 30.04 in 10.0 mi Calm Calm - N/A   Clear
6:15 PM 32.0 °F - 23.0 °F 69% 30.04 in 10.0 mi Calm Calm - N/A   Scattered Clouds
6:35 PM 32.0 °F - 23.0 °F 69% 30.04 in 10.0 mi Calm Calm - N/A   Scattered Clouds
6:55 PM 30.2 °F - 23.0 °F 75% 30.03 in 10.0 mi Calm Calm - N/A   Mostly Cloudy
7:15 PM 30.2 °F - 23.0 °F 75% 30.03 in 10.0 mi Calm Calm - N/A   Overcast
7:35 PM 30.2 °F - 23.0 °F 75% 30.03 in 10.0 mi Calm Calm - N/A   Overcast
7:55 PM 30.2 °F 26.7 °F 23.0 °F 75% 30.01 in 10.0 mi South 3.5 mph - N/A   Overcast
8:15 PM 32.0 °F 28.7 °F 24.8 °F 75% 30.01 in 10.0 mi South 3.5 mph - N/A   Overcast
8:35 PM 32.0 °F - 24.8 °F 75% 30.01 in 10.0 mi Calm Calm - N/A   Overcast
8:55 PM 32.0 °F 27.5 °F 24.8 °F 75% 30.00 in 10.0 mi South 4.6 mph - N/A   Overcast
9:15 PM 32.0 °F - 24.8 °F 75% 29.99 in 10.0 mi Calm Calm - N/A   Overcast
9:35 PM 32.0 °F - 24.8 °F 75% 29.99 in 10.0 mi Calm Calm - N/A   Mostly Cloudy
9:55 PM 30.2 °F - 23.0 °F 75% 30.00 in 10.0 mi Calm Calm - N/A   Scattered Clouds
10:15 PM 30.2 °F - 23.0 °F 75% 30.00 in 10.0 mi Calm Calm - N/A   Scattered Clouds
10:35 PM 28.4 °F - 23.0 °F 80% 29.99 in 10.0 mi Calm Calm - N/A   Clear
10:55 PM 28.4 °F - 23.0 °F 80% 29.98 in 10.0 mi Calm Calm - N/A   Clear
11:15 PM 28.4 °F 24.6 °F 23.0 °F 80% 29.98 in 10.0 mi SSW 3.5 mph - N/A   Clear
11:35 PM 26.6 °F 22.6 °F 23.0 °F 86% 29.98 in 10.0 mi South 3.5 mph - N/A   Clear
11:55 PM 26.6 °F 22.6 °F 23.0 °F 86% 29.98 in 10.0 mi South 3.5 mph - N/A   Clear